Miscellaneous Local Product
Issued by NWS North Platte, NE

Home | Current Version | Previous Version | Text Only | Print | Product List | Glossary On
Versions: 1 2 3 4 5 6 7 8 9 10 11 12 13 14 15 16 17 18 19 20 21 22 23 24 25 26 27 28 29 30 31 32 33 34 35 36 37 38 39 40 41 42 43 44 45 46 47 48 49 50
000
AXUS43 KLBF 260810
MISLBF


WESTERN AND NORTH CENTRAL NEBRASKA HOURLY WEATHER ROUNDUP
NATIONAL WEATHER SERVICE NORTH PLATTE NE
200 AM CST FRI DEC 26 2014

***STATIONS NOT REPORTING VARIABLES SUCH AS SKY/WEATHER OR
PRESSURE ARE PROVIDED BY THE NEBRASKA DEPARTMENT OF
ROADS...RAWS...AND APRS NETWORKS...AND ARE NOT UNDER
NATIONAL WEATHER SERVICE QUALITY CONTROL***

...OBSERVATIONS IN AND NEAR THE EASTERN PANHANDLE OF NEBRASKA...

CITY           SKY/WX    TMP DP  RH WIND       PRES   REMARKS
PINE RIDGE     CLOUDY    21  17  84 N10       29.98R WCI  10
CHADRON        CLOUDY    21  17  84 NE15      30.00R WCI   8
ALLIANCE       LGT SNOW  21  19  92 N15       29.91S VSB 1   WCI   8
SIDNEY         LGT SNOW  20  17  88 N13       29.88S FOG     WCI   7
WHITECLAY        N/A     19  16  88 NE8         N/A  WCI   9
CRESCENT LAKE    N/A     20  18  91 N12         N/A  WCI   8
LISCO            N/A     25  19  80 W7          N/A  WCI  17
BIG SPRINGS      N/A     24  22  91 N3          N/A
$$

...OBSERVATIONS IN NORTH CENTRAL NEBRASKA...

CITY           SKY/WX    TMP DP  RH WIND       PRES   REMARKS
VALENTINE      CLOUDY    23  20  88 N13       29.96R WCI  11
THEDFORD       CLOUDY    25  23  91 N15G22    29.92R WCI  12
AINSWORTH      CLOUDY    23  22  94 N17       29.93R WCI  10
O`NEILL        CLOUDY    27  26  99 N15G22    29.90S FOG     WCI  15
ORD            CLOUDY    27  23  85 N22G29    29.88R WCI  13
BROKEN BOW     FRZ RAIN  26  23  88 N22G29    29.89R WCI  12
BROWNLEE         N/A     22  19  89 SW14        N/A  WCI   9
SPRINGVIEW       N/A     24  20  85 N9G17       N/A  WCI  14
BREWSTER         N/A     28  26  92 N10         N/A  WCI  18
ROSE             N/A     28  28 100 NE5         N/A  WCI  23
SARGENT          N/A     25  23  92 N5G13       N/A  WCI  19
COMSTOCK         N/A     32  28  86 E14         N/A  WCI  22
CHAMBERS         N/A     25  24  93 NE8         N/A  WCI  16
EWING            N/A     26  25  95 CALM        N/A
$$

...OBSERVATIONS IN SOUTHWEST NEBRASKA AND FAR NORTHEAST COLORADO...

CITY           SKY/WX    TMP DP  RH WIND       PRES   REMARKS
WRAY           CLOUDY    26  24  93 N14       29.89R WCI  14
IMPERIAL       CLOUDY    25  20  81 N22       29.89R WCI  10
OGALLALA       CLOUDY    25  22  89 N13       29.91S WCI  14
NORTH PLATTE   CLOUDY    25  21  85 N18G25    29.90R WCI  11
MCCOOK         CLOUDY    28  25  88 N14       29.88R WCI  17
LEXINGTON      CLOUDY    29  26  87 N18G24    29.88R WCI  16
PAXTON           N/A     26  23  88 N13         N/A  WCI  15
BRADY            N/A     25  22  88 CALM        N/A
GOTHENBURG       N/A     26  22  84 N13         N/A  WCI  15
CALLAWAY         N/A     24  23  94 N16         N/A  WCI  11
$$

...NORTH PLATTE AREA...

CITY           SKY/WX    TMP DP  RH WIND       PRES   REMARKS
AIRPORT        CLOUDY    25  21  85 N18G25    29.90R WCI  11
DOWNTOWN         N/A     24  21  87 N8G15       N/A  WCI  15
$$

...SOME WEATHER OBSERVATIONS FROM AROUND THE REGION...

CITY           SKY/WX    TMP DP  RH WIND       PRES   REMARKS
DENVER         LGT SNOW  18  17  96 N9        29.86R WCI   7
LARAMIE        MOCLDY    10   4  76 E8        29.74S WCI  -2
CHEYENNE       CLOUDY    13  10  88 NE7       29.80F FOG     WCI   3
SCOTTSBLUFF    LGT SNOW  21  18  88 N7        29.94F FOG     WCI  12
RAPID CITY     CLOUDY    21  17  84 N16       29.99R WCI   7
PIERRE         CLOUDY    26  21  81 N15       30.00R WCI  14
WINNER         CLOUDY    26  22  84 N16       29.96R WCI  14
SIOUX FALLS    CLOUDY    29  26  89 N12       29.88R WCI  19
OMAHA          MOCLDY    32  30  92 N13       29.80R WCI  22
GRAND ISLAND   CLOUDY    29  27  92 N18       29.86R WCI  16
KANSAS CITY    PTCLDY    45  31  58 S13       29.81R
WICHITA        MOCLDY    46  30  53 S12       29.78R
HAYS           CLOUDY    32  21  64 N16G23    29.81R WCI  21
LIBERAL        CLEAR     28  19  69 N17       29.79R WCI  16
GOODLAND       CLOUDY    27  24  89 N21       29.81S WCI  13
$$



USA.gov is the U.S. government's official web portal to all federal, state and local government web resources and services.